This demonstration page uses our WeatherBlox Daily Observations layout. Learn more.

Left ArrowRight Arrow

40.92945, -100.16068

Hourly Observations for September 5, 2020

Temp ( °F °C ) Dew Point ( °F °C ) Humidity (%) Winds ( mph kmh ) Pressure ( in mb ) Visibility ( mi km ) Precip ( " mm )
12:15 am 00:15 Clear 63 17.4 54 12.1 71 71 ESE 3 6 30.17 1022 10 16 0.00 0.00
12:35 am 00:35 Clear 63 17 53 11.5 70 70 ESE 3 6 30.19 1022 10 16 0.00 0.00
12:55 am 00:55 Clear 63 17.2 52 11.2 68 68 Calm 30.19 1022 7 11 0.00 0.00
1:15 am 01:15 Clear 64 17.5 53 11.4 68 68 SE 5 7 30.18 1022 7 11 0.00 0.00
1:35 am 01:35 Clear 62 16.7 53 11.5 72 72 SE 5 7 30.19 1022 10 16 0.00 0.00
1:55 am 01:55 Clear 61 16.3 53 11.8 75 75 Calm 30.19 1022 10 16 0.00 0.00
2:15 am 02:15 Clear 61 16.2 53 11.7 75 75 Calm 30.19 1023 10 16 0.00 0.00
2:35 am 02:35 Clear 59 15.1 53 11.8 81 81 Calm 30.19 1023 10 16 0.00 0.00
2:55 am 02:55 Clear 59 14.9 53 11.5 80 80 Calm 30.20 1023 10 16 0.00 0.00
3:15 am 03:15 Clear 57 14 53 11.6 86 86 Calm 30.20 1023 10 16 0.00 0.00
3:35 am 03:35 Clear 57 13.7 53 11.5 87 87 ENE 3 6 30.21 1023 10 16 0.00 0.00
3:55 am 03:55 Clear 57 13.8 53 11.4 86 86 Calm 30.21 1023 10 16 0.00 0.00
4:15 am 04:15 Clear 58 14.2 53 11.6 84 84 Calm 30.20 1023 10 16 0.00 0.00
4:35 am 04:35 Clear 56 13.6 53 11.5 87 87 Calm 30.21 1023 10 16 0.00 0.00
4:55 am 04:55 Clear 56 13.3 53 11.5 89 89 NE 3 6 30.21 1023 10 16 0.00 0.00
5:15 am 05:15 Clear 56 13.6 53 11.7 88 88 E 5 7 30.21 1023 10 16 0.00 0.00
5:35 am 05:35 Clear 56 13.5 53 11.8 90 90 E 5 7 30.21 1023 10 16 0.00 0.00
5:55 am 05:55 Clear 56 13.5 53 11.8 90 90 ENE 3 6 30.21 1023 10 16 0.00 0.00
6:15 am 06:15 Clear 56 13.6 54 12 90 90 Calm 30.20 1023 10 16 0.00 0.00
6:35 am 06:35 Clear 55 12.8 53 11.6 92 92 Calm 30.22 1023 10 16 0.00 0.00
6:55 am 06:55 Clear 55 13 53 11.7 92 92 ENE 3 6 30.21 1023 10 16 0.00 0.00
7:15 am 07:15 Sunny 56 13.3 53 11.9 91 91 E 5 7 30.21 1023 10 16 0.00 0.00
7:35 am 07:35 Sunny 55 12.5 52 11.3 92 92 Calm 30.22 1023 10 16 0.00 0.00
7:55 am 07:55 Sunny 56 13.5 53 11.9 90 90 Calm 30.21 1023 10 16 0.00 0.00
8:15 am 08:15 Sunny 59 15.1 55 12.8 86 86 Calm 30.19 1023 10 16 0.00 0.00
8:35 am 08:35 Hazy 62 16.8 56 13.4 81 81 Calm 30.18 1022 4 6 0.00 0.00
8:55 am 08:55 Hazy 66 19 58 14.2 74 74 SSE 5 7 30.16 1021 2 3 0.00 0.00
9:15 am 09:15 Hazy 67 19.6 58 14.7 73 73 SE 3 6 30.15 1021 3 4 0.00 0.00
9:35 am 09:35 Mostly Cloudy with Haze 70 20.9 60 15.3 70 70 SSE 3 6 30.13 1020 2 3 0.00 0.00
9:55 am 09:55 Mostly Cloudy with Haze 72 22.1 61 16 68 68 SSE 5 7 30.12 1020 1 2 0.00 0.00
10:15 am 10:15 Sunny 74 23.5 62 16.7 66 66 SSE 6 9 30.11 1020 10 16 0.00 0.00
10:35 am 10:35 Sunny 77 25.1 62 16.7 60 60 SSW 6 9 30.10 1019 10 16 0.00 0.00
10:55 am 10:55 Sunny 79 25.9 63 17.1 58 58 SSW 3 6 30.09 1019 10 16 0.00 0.00
11:15 am 11:15 Sunny 81 27.1 63 17.2 55 55 S 7 11 30.08 1019 10 16 0.00 0.00
11:35 am 11:35 Sunny 83 28.6 63 17.1 50 50 S 8 13 30.06 1018 10 16 0.00 0.00
11:55 am 11:55 Sunny 85 29.6 62 16.9 46 46 S 8 13 30.05 1018 10 16 0.00 0.00
12:15 pm 12:15 Sunny 87 30.5 62 16.7 43 43 S 13 20 30.03 1017 10 16 0.00 0.00
12:35 pm 12:35 Sunny 89 31.7 62 16.9 41 41 SSW 12 19 30.01 1016 10 16 0.00 0.00
12:55 pm 12:55 Sunny 90 32.1 62 16.7 40 40 S 14 22 30.00 1016 10 16 0.00 0.00
1:15 pm 13:15 Sunny 92 33.2 62 16.8 37 37 SSW 12 19 29.99 1016 10 16 0.00 0.00
1:35 pm 13:35 Sunny 92 33.5 62 16.6 36 36 SSW 14 22 29.98 1015 10 16 0.00 0.00
1:55 pm 13:55 Sunny 93 34 62 16.5 35 35 S 16 26 29.98 1015 10 16 0.00 0.00
2:15 pm 14:15 Sunny 95 34.9 62 16.5 33 33 SSW 15 24 29.96 1015 10 16 0.00 0.00
2:35 pm 14:35 Sunny 95 35 62 16.5 33 33 S 13 20 29.95 1014 10 16 0.00 0.00
2:55 pm 14:55 Sunny 97 36.3 60 15.8 29 29 S 16 26 29.92 1013 10 16 0.00 0.00
3:15 pm 15:15 Sunny 98 36.6 56 13.3 25 25 S 8 13 29.91 1013 10 16 0.00 0.00
3:35 pm 15:35 Sunny 99 37.2 55 12.5 23 23 SSW 15 24 29.89 1012 10 16 0.00 0.00
3:55 pm 15:55 Sunny 99 37.4 55 12.6 22 22 S 16 26 29.88 1012 10 16 0.00 0.00
4:15 pm 16:15 Sunny 100 37.6 54 12.3 22 22 S 18 30 29.86 1011 10 16 0.00 0.00
4:35 pm 16:35 Sunny 99 37.4 55 12.7 23 23 SSW 14 22 29.85 1011 10 16 0.00 0.00
4:55 pm 16:55 Sunny 99 37.3 56 13.4 24 24 SSW 16 26 29.84 1011 10 16 0.00 0.00
5:15 pm 17:15 Sunny 99 37.2 55 13 23 23 S 18 30 29.84 1011 10 16 0.00 0.00
5:35 pm 17:35 Sunny 98 36.9 56 13.1 24 24 S 14 22 29.83 1010 10 16 0.00 0.00
5:55 pm 17:55 Sunny 98 36.6 56 13.3 25 25 S 18 30 29.84 1010 10 16 0.00 0.00
6:15 pm 18:15 Sunny 97 36.2 56 13.5 26 26 S 14 22 29.84 1010 10 16 0.00 0.00
6:35 pm 18:35 Sunny 96 35.7 56 13.4 26 26 S 15 24 29.83 1010 10 16 0.00 0.00
6:55 pm 18:55 Sunny 95 35 57 14 28 28 S 14 22 29.84 1010 10 16 0.00 0.00
7:15 pm 19:15 Sunny 93 34.1 58 14.4 30 30 S 13 20 29.84 1010 10 16 0.00 0.00
7:35 pm 19:35 Sunny 91 33 59 15 34 34 S 13 20 29.85 1011 10 16 0.00 0.00
7:55 pm 19:55 Sunny 89 31.9 59 15.1 36 36 S 15 24 29.85 1011 10 16 0.00 0.00
8:15 pm 20:15 Clear 87 30.5 59 15.2 39 39 S 12 19 29.86 1011 10 16 0.00 0.00
8:35 pm 20:35 Clear 85 29.5 59 15.2 42 42 S 12 19 29.87 1012 10 16 0.00 0.00
8:55 pm 20:55 Clear 84 29 59 15.1 43 43 S 13 20 29.88 1012 10 16 0.00 0.00
9:15 pm 21:15 Clear 84 28.8 59 15 43 43 S 13 20 29.88 1012 10 16 0.00 0.00
9:35 pm 21:35 Clear 83 28.6 59 15.1 44 44 S 14 22 29.88 1012 10 16 0.00 0.00
9:55 pm 21:55 Clear 83 28.1 59 15 45 45 S 14 22 29.88 1012 10 16 0.00 0.00
10:15 pm 22:15 Clear 83 28.1 59 15 45 45 S 16 26 29.88 1012 10 16 0.00 0.00
10:35 pm 22:35 Clear 81 27.4 59 15.1 47 47 S 17 28 29.89 1012 10 16 0.00 0.00
10:55 pm 22:55 Clear 81 27 59 15 48 48 S 18 30 29.88 1012 10 16 0.00 0.00
11:15 pm 23:15 Clear 80 26.5 59 15 49 49 S 14 22 29.89 1012 10 16 0.00 0.00
11:35 pm 23:35 Clear 79 26 59 14.8 50 50 S 14 22 29.88 1012 10 16 0.00 0.00
11:55 pm 23:55 Clear 78 25.5 58 14.7 51 51 S 13 20 29.89 1012 10 16 0.00 0.00

Powered by AerisWeather